Theta_e
314 314 315 316 318 321 324 326 326 326 326 323 324 325 326 328 328 328 328 327 327 325 322 320 319 317 314 313 313 311 310 309 307 309 309 309 308 306 305 305 305 306 307
301 300 307 312 315 318 323 325 326 327 327 327 327 324 322 323 326 329 329 328 327 326 324 321 320 318 316 315 314 311 310 309 308 309 306 304 306 306 307 306 306 308 306
300 295 295 299 309 314 319 323 326 327 327 328 324 321 322 321 326 327 328 328 328 327 325 324 322 320 318 317 315 313 311 310 308 309 310 304 303 305 307 305 305 305 304
293 293 294 293 299 310 313 321 325 326 327 327 326 326 325 322 321 322 324 327 328 328 327 326 324 322 319 316 318 317 315 313 311 308 307 306 307 303 302 307 305 303 305
294 293 293 293 296 304 306 315 320 323 324 326 326 325 323 323 322 326 324 323 325 326 326 325 323 321 320 319 318 315 314 313 313 310 308 306 306 305 303 300 304 306 305
291 292 292 296 298 299 299 301 312 317 319 323 324 324 323 321 320 322 320 321 323 323 323 323 323 322 321 319 318 316 314 313 312 312 311 308 307 305 304 301 303 304 305
290 292 295 296 298 299 299 299 299 302 309 321 323 323 322 322 321 322 322 321 320 319 321 321 320 319 319 318 317 315 313 312 311 310 310 309 308 308 305 303 302 300 301
291 293 295 296 297 299 300 298 297 297 298 301 318 324 323 321 320 318 319 317 316 315 315 313 312 312 312 312 310 307 306 304 302 299 299 300 300 300 301 300 298 292 291
292 294 295 296 297 299 301 300 299 300 301 301 302 314 320 320 317 314 313 312 310 307 306 304 303 302 302 301 298 297 295 295 294 293 293 293 293 293 293 293 294 294 287
292 294 295 295 296 297 298 299 300 300 299 300 302 308 311 313 310 308 306 304 302 302 299 297 296 295 294 293 292 291 291 290 290 290 289 289 289 289 289 289 289 289 289
292 293 294 294 295 295 295 296 296 296 296 296 298 301 301 301 301 300 299 296 295 294 293 292 291 290 290 289 289 288 288 287 287 287 287 287 287 286 286 287 287 286 287
293 292 293 292 292 294 294 294 293 294 293 292 294 295 296 297 296 294 293 292 291 291 291 290 289 288 287 287 287 286 286 285 285 285 285 285 287 285 285 285 285 285 286
292 292 291 291 292 292 292 291 292 291 290 291 291 290 291 292 292 291 290 290 289 289 287 287 287 286 286 286 285 285 285 284 284 284 283 283 283 283 283 284 283 284 285
292 292 291 291 291 291 290 290 290 290 289 289 289 289 288 289 289 288 288 287 287 286 286 285 284 285 284 285 284 284 284 283 283 283 283 283 282 282 282 282 282 284 284
291 292 291 290 289 289 289 289 288 288 288 288 287 286 286 287 287 286 286 285 285 285 284 284 283 284 285 285 284 284 284 283 282 282 282 283 282 286 285 284 284 284 283
293 293 291 290 289 290 289 289 288 288 288 287 286 285 286 285 285 284 284 284 284 283 283 283 283 284 285 290 289 285 283 282 282 281 281 282 281 284 286 286 287 286 284
294 293 292 291 291 290 290 289 288 287 286 286 285 285 285 284 284 284 283 283 283 283 282 282 283 283 285 289 289 286 283 282 281 281 282 282 283 282 283 285 286 285 287
294 293 293 292 292 291 289 289 287 286 286 285 284 284 284 283 283 283 282 282 282 281 281 281 282 282 285 289 287 285 282 282 282 282 282 282 281 282 284 284 284 284 284
295 296 296 294 292 290 289 287 286 285 285 284 284 283 283 282 282 282 281 280 279 279 279 280 280 280 280 287 287 284 282 282 282 282 282 283 282 284 286 284 283 283 283
295 294 294 292 290 289 288 287 285 284 284 284 284 283 282 282 282 281 279 278 279 279 280 280 278 277 277 286 287 284 281 277 280 281 282 283 281 285 286 283 282 280 282
292 292 291 290 289 287 287 286 285 285 285 283 282 281 281 281 280 279 277 278 278 278 277 277 275 275 277 278 285 286 281 279 277 277 278 280 285 285 286 286 277 279 285
289 289 287 287 287 287 287 286 285 285 283 282 281 280 280 280 279 278 277 278 278 277 276 276 275 275 274 277 284 284 284 283 274 275 278 278 284 286 286 283 285 285 284
286 284 285 284 284 286 288 286 285 283 282 281 280 278 278 278 278 278 277 276 276 276 275 275 274 273 275 273 282 283 283 283 278 279 280 284 285 285 284 284 284 278 274
283 280 282 282 282 285 285 286 283 283 283 281 279 278 278 277 277 277 277 276 275 275 274 273 273 270 270 272 273 274 273 277 278 280 277 280 283 283 282 275 277 275 273
279 280 281 281 280 280 282 282 282 283 282 280 278 277 278 277 275 275 275 275 274 275 273 271 271 270 267 270 276 275 269 266 273 269 265 268 270 269 269 268 269 271 271
277 278 277 279 278 279 278 280 282 284 282 279 277 277 276 275 274 273 271 275 276 278 279 278 273 270 276 280 281 280 281 280 278 262 260 262 264 265 266 265 267 268 268
Wind_Speed
11 7 8 9 8 8 11 12 11 11 9 5 6 5 6 6 5 5 6 6 6 7 6 4 4 4 5 4 4 3 3 2 2 2 3 3 4 5 4 3 3 5 4
8 7 8 9 13 13 13 12 14 12 12 9 7 3 4 3 3 5 7 8 7 7 6 6 5 5 3 4 5 4 1 2 3 1 0 4 5 3 2 2 2 4 4
14 8 9 10 9 12 14 14 14 14 13 12 5 3 4 2 3 3 3 5 8 8 8 8 6 6 5 5 4 4 5 2 1 4 2 2 3 3 2 2 2 3 2
9 8 9 9 11 15 9 13 13 14 13 13 10 12 10 8 4 4 4 5 6 6 7 8 7 6 4 4 3 3 3 3 4 0 3 2 2 2 4 3 3 1 4
14 13 12 9 8 7 8 9 10 12 11 13 13 11 8 6 4 5 6 6 5 7 5 4 4 4 3 4 5 4 4 3 2 3 1 2 2 2 4 3 3 3 4
11 9 4 5 5 4 6 7 8 9 9 12 12 13 12 8 5 5 5 4 2 3 3 4 4 4 4 4 3 3 4 4 3 2 2 2 2 1 2 3 3 5 2
7 8 9 8 7 8 7 6 8 8 7 10 11 12 11 11 11 8 6 5 4 2 4 4 4 3 4 4 4 5 4 4 3 3 3 2 3 3 2 2 6 5 3
8 12 11 8 8 7 7 7 8 7 7 7 9 11 10 7 6 5 4 4 4 4 5 6 6 6 6 6 7 5 5 6 6 7 5 4 5 4 3 2 4 6 2
7 8 7 7 8 7 7 7 7 6 6 7 6 6 6 9 7 7 7 5 7 6 7 8 7 7 7 8 7 6 5 6 6 5 6 4 3 4 4 4 4 4 4
7 7 6 6 5 5 4 5 5 5 4 5 4 6 6 6 9 9 10 9 7 9 9 8 8 8 7 8 8 6 5 7 4 4 6 5 3 4 3 3 3 3 3
9 5 4 5 6 5 5 5 6 6 5 5 4 6 6 8 9 9 9 8 7 9 9 8 8 8 8 6 8 7 6 8 6 5 6 6 5 4 4 4 3 3 3
6 6 6 5 5 6 6 5 5 6 5 5 6 7 8 9 10 10 8 7 10 8 10 9 9 8 7 6 7 8 6 7 6 5 5 5 4 5 4 3 3 2 3
9 7 5 7 6 5 5 6 6 6 6 5 7 6 7 8 10 10 8 8 11 10 9 9 8 7 7 7 6 7 6 6 6 5 5 5 5 4 3 3 4 3 5
8 8 9 7 6 5 5 6 6 6 7 6 7 8 7 7 8 9 9 9 9 11 9 7 7 7 7 6 6 6 6 6 5 5 5 4 4 4 4 3 4 4 6
9 9 8 7 7 7 6 5 5 7 7 7 7 6 7 8 8 8 8 8 9 8 8 9 7 6 6 4 6 6 5 5 5 5 4 4 4 7 8 4 5 5 6
14 14 11 10 11 11 9 8 7 7 7 8 8 8 9 8 8 8 8 8 8 7 7 6 7 7 4 10 9 7 5 5 5 4 4 4 4 5 8 9 10 9 6
14 13 13 13 12 13 12 11 10 8 8 8 8 9 9 9 8 8 9 8 7 6 7 6 7 6 6 10 9 8 4 5 4 4 3 3 2 2 2 6 9 7 11
12 14 14 14 12 10 9 9 9 9 9 8 9 8 9 9 8 8 8 6 5 6 5 6 6 6 5 11 10 9 5 5 5 4 2 3 5 5 5 5 5 5 7
14 14 13 13 13 14 12 12 10 9 9 10 10 8 9 9 8 8 7 5 5 3 2 4 6 7 4 11 10 7 4 4 4 3 1 2 2 7 10 6 9 8 7
8 11 12 10 13 13 14 15 13 12 11 10 10 9 8 9 9 7 6 3 3 4 5 6 4 5 5 6 6 6 2 3 1 2 3 4 4 8 9 6 5 6 7
9 9 14 16 14 14 15 14 13 15 11 10 9 8 7 8 7 7 3 5 6 6 4 5 3 4 4 3 6 6 3 3 1 1 2 3 10 10 9 11 1 5 11
6 8 10 10 11 15 16 16 15 11 12 12 11 10 8 6 6 8 5 6 6 6 5 4 3 1 2 4 6 5 5 4 4 4 3 4 11 12 12 8 11 15 15
3 3 7 8 8 12 14 15 12 14 13 12 11 10 8 7 6 8 7 5 5 4 4 4 3 3 1 1 4 4 5 5 3 3 6 10 10 11 9 11 10 8 3
3 2 6 6 7 9 8 9 14 14 15 13 11 9 10 8 6 4 5 5 6 5 5 5 5 3 1 2 2 2 2 5 4 7 6 7 8 6 7 3 6 3 2
2 3 5 5 5 5 6 10 13 15 14 12 11 10 8 9 8 4 5 4 2 5 6 5 5 5 3 4 7 6 3 3 4 1 2 3 3 2 2 2 3 3 3
1 3 4 6 5 6 6 7 9 12 13 12 9 9 8 6 6 6 4 4 6 11 10 9 7 3 6 10 8 6 6 2 4 4 2 1 1 2 2 2 2 2 3
Wind_Direction
233 209 199 186 183 193 191 192 185 191 177 172 186 198 200 196 191 176 186 182 190 187 188 195 209 178 199 202 196 197 214 271 194 314 316 284 277 288 290 276 301 320 314
232 216 211 194 186 200 205 196 193 189 192 191 196 176 164 191 172 183 189 190 183 187 190 193 202 192 192 206 198 178 186 240 180 170 231 328 330 356 303 2 317 308 328
232 221 220 211 202 200 201 198 197 193 193 193 138 106 92 96 155 172 173 200 194 191 194 200 202 193 188 215 190 175 187 229 239 211 188 258 243 340 346 322 310 330 335
229 225 220 214 207 215 200 199 196 197 196 184 183 194 198 198 196 181 187 203 195 197 198 212 202 196 184 193 217 203 198 174 237 199 238 317 84 310 311 313 323 336 326
221 223 215 217 210 184 195 199 188 191 187 191 192 191 189 187 176 196 182 201 205 200 203 190 170 179 177 205 198 181 192 186 202 180 166 220 232 227 243 269 290 334 297
221 223 198 168 184 191 188 189 181 188 180 186 187 186 187 177 169 175 207 193 150 121 143 147 155 166 172 185 185 172 175 175 194 202 203 215 247 255 274 267 282 292 274
194 195 199 188 180 186 191 188 174 188 187 192 189 191 187 184 193 196 191 161 141 135 139 134 130 118 116 115 112 107 95 98 97 66 66 40 17 354 316 287 320 303 258
210 200 192 183 178 179 184 189 181 180 184 195 205 201 190 190 186 165 147 139 127 123 107 95 89 85 75 78 81 73 61 68 68 61 50 62 42 27 19 332 329 317 289
205 198 175 175 170 175 180 187 185 177 192 201 190 204 187 183 158 133 123 120 118 111 102 93 90 77 84 81 77 77 80 79 75 71 67 74 47 38 28 29 22 344 325
197 185 177 180 164 164 164 165 163 173 163 156 165 176 163 142 129 129 125 123 122 115 104 100 100 92 84 89 96 87 78 87 70 72 75 62 50 50 37 33 26 36 346
172 179 174 171 160 146 165 161 146 143 138 130 128 125 119 116 112 116 114 117 119 111 112 112 101 98 96 88 91 92 90 84 78 60 70 61 49 44 32 32 24 17 4
165 170 169 169 166 165 164 161 135 127 126 116 113 110 117 118 115 112 113 122 115 106 112 108 102 101 98 96 92 89 82 90 83 71 71 58 44 47 38 29 21 6 332
155 160 162 192 189 176 163 149 140 129 126 126 114 103 108 119 119 119 117 122 118 110 101 106 109 106 96 92 90 104 102 90 86 78 71 59 56 48 22 17 10 353 349
173 181 191 188 169 173 166 159 151 139 138 132 126 124 124 118 117 117 122 120 117 113 107 101 104 105 111 109 110 103 94 86 78 77 78 80 81 65 32 31 4 352 339
196 200 199 182 176 175 175 164 149 147 139 133 126 121 108 109 112 108 107 104 103 108 112 114 107 110 107 113 103 96 96 101 98 82 78 69 64 40 30 9 352 343 331
205 201 193 186 190 187 178 165 166 152 141 140 134 129 124 124 120 116 117 110 110 112 109 116 117 109 98 105 110 115 116 105 99 96 77 74 70 37 13 2 349 339 327
210 201 195 192 191 189 178 175 165 142 148 142 141 135 131 129 128 126 121 122 124 121 123 119 117 117 109 120 120 117 111 106 95 93 88 59 28 9 308 325 343 314 314
196 196 196 193 187 174 164 150 150 155 152 147 143 137 136 134 134 128 126 123 131 130 134 122 120 116 126 134 124 121 118 115 113 107 78 41 10 336 337 334 326 319 316
211 207 192 184 171 167 158 146 150 155 155 159 154 148 146 143 142 139 140 133 117 113 111 130 135 136 136 139 137 131 131 117 120 132 95 59 323 307 334 329 323 317 319
190 179 168 161 164 168 157 158 165 163 169 163 158 149 146 145 149 143 138 115 118 131 134 132 133 135 143 143 140 145 134 119 188 223 194 222 242 307 326 315 292 291 312
177 155 163 174 173 157 158 167 167 180 163 142 137 136 142 143 139 128 114 137 131 127 125 124 141 146 154 172 158 149 133 158 135 248 269 254 275 294 313 326 335 297 307
146 164 158 162 157 163 168 170 177 154 144 145 144 146 143 136 139 137 130 127 136 137 139 146 136 153 178 202 170 160 177 215 162 235 241 254 288 287 301 315 316 322 326
140 129 143 137 154 169 178 170 161 147 145 144 146 142 134 138 145 146 144 141 150 148 158 165 169 188 186 235 225 208 231 245 234 228 256 284 303 311 314 307 317 333 308
107 78 117 147 162 175 173 162 151 149 150 150 148 147 152 146 146 143 156 158 167 165 168 182 184 188 226 221 232 242 269 277 287 284 276 270 289 321 327 4 325 285 263
103 127 144 146 157 142 133 145 150 151 152 149 152 158 161 167 158 152 169 179 180 177 178 191 173 169 210 226 212 211 215 223 238 353 8 13 23 345 303 302 298 297 311
139 112 126 128 131 126 124 135 156 163 153 154 161 166 158 160 159 157 143 202 193 198 197 183 171 212 216 214 221 234 248 325 331 50 72 311 317 298 300 324 299 308 308